Tracking 20093 objects as of 15-Dec-2019
HD Live streaming from Space Station
objects crossing your sky now

COSMOS 2251 DEB

Track COSMOS 2251 DEB now!
10-day predictions


NORAD ID: 34304
Int'l Code: 1993-036NA
Perigee: 708.9 km
Apogee: 933.1 km
Inclination: 74.0 °
Period: 101.2 minutes
Semi major axis: 7192 km
RCS: 0.0279 m2 (small)
Launch date: June 16, 1993
Source: Commonwealth of Independent States (former USSR) (CIS)
Launch site: PLESETSK MISSILE AND SPACE COMPLEX (PKMTR)

Note: This is SATELLITE DEBRIS
aabbcc
Your satellite tracking list
Your tracking list is empty




NASA's NSSDC Master Catalog

Two Line Element Set (TLE):
1 34304U 93036NA  19348.70762727 +.00000401 +00000-0 +16572-3 0  9997
2 34304 074.0175 134.6709 0155862 067.4604 307.0382 14.23393392560445
Source of the keplerian elements: AFSPC